Weather reports worldwide

Advertisment
Greifswalder Oie, Germany (10097): temperature & dewpoint: 24.10.2020 12:00:00 - 30.10.2020 12:00:00 (CET)Greifswalder Oie, Germany (10097): temperature 5cm & temperature -5cm: 24.10.2020 12:00:00 - 30.10.2020 12:00:00 (CET)Greifswalder Oie, Germany (10097): temperature -20cm & temperature -100cm: 24.10.2020 12:00:00 - 30.10.2020 12:00:00 (CET)Greifswalder Oie, Germany (10097): water temperature: 24.10.2020 12:00:00 - 30.10.2020 12:00:00 (CET)Greifswalder Oie, Germany (10097): wind speed & gusts: 24.10.2020 12:00:00 - 30.10.2020 12:00:00 (CET)Greifswalder Oie, Germany (10097): wind direction: 24.10.2020 12:00:00 - 30.10.2020 12:00:00 (CET)Greifswalder Oie, Germany (10097): reduced air pressure: 24.10.2020 12:00:00 - 30.10.2020 12:00:00 (CET)Greifswalder Oie, Germany (10097): visibility: 24.10.2020 12:00:00 - 30.10.2020 12:00:00 (CET)Greifswalder Oie, Germany (10097): sunshine duration: 24.10.2020 12:00:00 - 30.10.2020 12:00:00 (CET)Greifswalder Oie, Germany (10097): precipitation: 24.10.2020 12:00:00 - 30.10.2020 12:00:00 (CET)
Date & Time tt [°C] td [°C] tt 5cm [°C] tt -5cm [°C] tt -20cm [°C] tt -100cm [°C] tw [°C] ff [km/h] ff [kn] fx [km/h] fx [kn] dd ppp [hPa] vv [km] sd [min] rr [mm]
30.10.2020 12:00:00 9,0 8,5 9,0 9,4 9,3 12,3 10,5 15 8 27 14 SSE 1012,9 3,9 0 0,5
30.10.2020 11:00:00 8,8 8,2 8,8 9,0 9,2 12,3 10,4 16 8 27 15 SSE 1013,4 7 0 0,8
30.10.2020 10:00:00 8,8 8,0 8,6 8,6 9,1 12,3 10,4 16 9 27 14 SSE 1013,4 11 0 1,0
30.10.2020 09:00:00 8,7 7,8 8,3 8,2 9,1 12,3 10,4 13 7 27 15 S 1013,7 15 0 0,8
30.10.2020 08:00:00 8,6 7,4 8,0 8,0 9,1 12,3 10,4 17 9 30 16 S 1013,7 21 0 0,3
30.10.2020 07:00:00 8,4 7,3 7,9 7,8 9,1 12,3 10,4 23 12 30 16 SSW 1013,6 20 0 0,0
30.10.2020 06:00:00 8,6 7,2 8,1 7,7 9,2 12,3 10,4 25 14 31 17 SSW 1013,6 22 0 0,0
30.10.2020 05:00:00 8,4 7,1 7,7 7,5 9,3 12,3 10,5 24 13 29 15 SW 1013,7 23 0 0,0
30.10.2020 04:00:00 8,3 7,1 7,6 7,6 9,4 12,3 10,4 22 12 33 18 SW 1013,7 20 0 0,0
30.10.2020 03:00:00 8,4 7,2 7,8 7,7 9,5 12,3 10,5 27 15 39 21 WSW 1014,1 20 0 0,0
30.10.2020 02:00:00 9,2 7,7 8,5 8,0 9,6 12,3 10,6 35 19 45 25 WSW 1014,0 23 0 0,0
30.10.2020 01:00:00 9,6 8,1 8,9 8,3 9,6 12,3 10,6 38 20 46 25 WSW 1013,8 22 0 0,0
30.10.2020 00:00:00 9,6 8,1 8,8 8,2 9,7 12,3 10,7 38 20 46 25 WSW 1013,6 24 0 0,0
29.10.2020 23:00:00 9,6 8,0 8,9 8,2 9,8 12,3 10,7 35 19 50 27 WSW 1013,6 29 0 0,0
29.10.2020 22:00:00 9,8 7,9 9,0 8,3 9,9 12,3 10,8 41 22 53 28 WSW 1013,2 36 0 0,0
29.10.2020 21:00:00 9,8 7,9 9,0 8,4 10,0 12,3 10,8 42 23 54 29 WSW 1012,7 36 0 0,0
29.10.2020 20:00:00 9,8 7,7 9,1 8,5 10,2 12,4 10,9 44 24 57 31 WSW 1012,2 38 0 0,0
29.10.2020 19:00:00 10,1 7,7 9,5 8,7 10,3 12,4 10,9 45 24 55 30 WSW 1011,5 45 0 0,0
29.10.2020 18:00:00 10,6 7,6 9,7 9,1 10,4 12,4 11,0 44 24 55 30 W 1010,9 42 0 0,0
29.10.2020 17:00:00 10,5 8,2 9,4 9,4 10,5 12,4 11,1 36 19 49 27 WSW 1010,3 38 0 0,1
29.10.2020 16:00:00 10,3 8,0 9,8 9,9 10,5 12,4 11,2 37 20 57 31 WSW 1009,6 52 5 0,0
29.10.2020 15:00:00 10,5 7,5 10,3 10,4 10,5 12,4 11,3 44 24 57 31 WSW 1009,3 47 3 0,0
29.10.2020 14:00:00 10,7 6,9 11,0 10,8 10,4 12,4 11,2 45 25 56 31 WSW 1008,5 40 12 0,0
29.10.2020 13:00:00 10,3 7,1 10,5 10,4 10,3 12,4 11,2 46 25 58 31 WSW 1008,1 52 0 0,0
29.10.2020 12:00:00 10,5 7,1 10,7 10,6 10,2 12,4 11,3 41 22 55 30 WSW 1007,4 60 14 0,0
29.10.2020 11:00:00 10,3 7,6 10,6 10,6 10,0 12,4 11,2 44 24 58 31 WSW 1006,7 44 36 0,0
29.10.2020 10:00:00 10,0 8,4 9,4 9,4 9,9 12,4 11,0 38 21 49 26 SW 1006,1 56 1 0,8
29.10.2020 09:00:00 9,6 8,5 9,0 9,2 9,9 12,4 10,9 39 21 49 26 WSW 1005,6 13 0 1,4
29.10.2020 08:00:00 10,0 8,9 9,3 9,1 9,9 12,4 10,9 34 18 40 21 SSW 1004,9 14 0 0,2
29.10.2020 07:00:00 10,0 8,5 9,4 8,9 9,9 12,4 11,0 25 14 43 23 SSW 1004,8 42 0 0,0
29.10.2020 06:00:00 10,0 8,3 9,3 9,0 9,9 12,4 11,0 29 16 41 22 SSW 1005,0 21 0 0,0
29.10.2020 05:00:00 10,0 8,0 9,6 8,8 10,0 12,4 11,0 26 14 41 22 S 1005,3 45 0 0,0
29.10.2020 04:00:00 9,9 8,1 9,4 8,5 10,0 12,4 10,9 25 13 39 21 S 1005,5 56 0 0,0
29.10.2020 03:00:00 10,0 8,4 9,0 8,6 10,1 12,4 10,9 26 14 40 22 S 1006,1 43 0 0,0
29.10.2020 02:00:00 10,1 8,5 8,9 8,7 10,2 12,5 11,0 26 14 39 21 S 1006,8 43 0 0,0
29.10.2020 01:00:00 10,3 8,8 9,1 8,9 10,3 12,5 11,0 30 16 38 20 SSW 1007,1 42 0 0,0
29.10.2020 00:00:00 10,5 8,9 9,1 9,0 10,4 12,5 11,2 22 12 37 20 S 1007,5 43 0 0,0
28.10.2020 23:00:00 10,7 8,6 9,4 9,5 10,5 12,5 11,1 29 15 41 22 SSW 1007,7 52 0 0,0
28.10.2020 22:00:00 10,8 9,1 9,7 9,6 10,6 12,5 11,1 29 15 47 25 SSW 1008,1 47 0 0,2
28.10.2020 21:00:00 10,5 8,5 9,3 9,2 10,7 12,5 11,1 23 13 35 19 S 1008,3 53 0 0,0
28.10.2020 20:00:00 10,7 8,3 8,9 9,5 10,8 12,5 11,2 24 13 35 19 SSW 1008,3 62 0 0,0
28.10.2020 19:00:00 11,1 8,7 9,5 10,0 10,9 12,5 11,4 20 11 54 29 S 1008,2 59 0 0,9
28.10.2020 18:00:00 11,6 9,6 10,6 10,5 11,0 12,5 11,5 31 17 43 23 SSW 1008,4 22 0 0,0
28.10.2020 17:00:00 11,9 9,1 10,9 10,8 11,1 12,5 11,6 14 8 27 15 S 1007,8 44 6 0,0
28.10.2020 16:00:00 12,2 8,8 11,2 11,6 11,0 12,5 11,8 22 12 39 21 SSW 1008,0 49 30 0,0
28.10.2020 15:00:00 12,4 8,7 12,0 12,6 10,8 12,5 11,9 29 15 35 19 SSW 1007,5 45 53 0,0
28.10.2020 14:00:00 13,0 8,0 13,4 12,9 10,4 12,6 11,8 24 13 38 20 SSW 1007,2 51 60 0,0
28.10.2020 13:00:00 12,2 8,6 12,4 12,1 10,1 12,6 11,5 33 18 42 23 SW 1007,3 64 53 0,0
28.10.2020 12:00:00 11,6 8,3 11,9 11,0 9,8 12,6 11,3 31 17 45 25 SSW 1007,0 43 30 0,0
28.10.2020 11:00:00 10,7 8,0 10,9 9,9 9,7 12,6 11,1 32 18 51 28 SSW 1006,8 51 0 0,0
28.10.2020 10:00:00 9,9 7,9 10,1 9,3 9,6 12,6 10,9 40 22 50 27 SSW 1006,5 39 0 0,0
28.10.2020 09:00:00 9,4 8,3 9,0 8,8 9,5 12,6 10,8 42 23 51 28 SSW 1005,7 29 0 0,0
28.10.2020 08:00:00 9,3 7,4 8,9 8,4 9,5 12,6 10,7 41 22 54 29 SSW 1005,4 32 0 0,0
28.10.2020 07:00:00 9,8 6,9 9,4 8,3 9,5 12,6 10,7 43 23 53 29 SSW 1004,7 43 0 0,0
28.10.2020 06:00:00 9,6 6,5 8,9 8,1 9,5 12,6 10,9 40 22 53 29 SSW 1004,6 40 0 0,0
28.10.2020 05:00:00 9,6 6,6 9,2 8,0 9,6 12,6 10,8 37 20 59 32 SSW 1004,6 39 0 0,0
28.10.2020 04:00:00 9,4 6,8 8,5 7,8 9,7 12,6 10,7 32 17 46 25 SSW 1004,9 40 0 0,0
28.10.2020 03:00:00 9,6 6,6 8,8 8,0 9,8 12,6 10,8 29 16 47 26 S 1005,5 51 0 0,0
28.10.2020 02:00:00 9,7 6,6 8,8 7,9 9,9 12,6 10,9 36 20 51 28 SSW 1006,0 53 0 0,0
28.10.2020 01:00:00 9,7 6,5 8,7 8,0 10,0 12,6 10,9 43 23 51 28 SSW 1006,3 53 0 0,0
28.10.2020 00:00:00 9,8 6,7 8,6 8,2 10,1 12,6 11,1 32 18 46 25 S 1006,5 48 0 0,0
27.10.2020 23:00:00 9,9 7,2 8,9 8,4 10,3 12,6 11,1 34 18 46 25 SSW 1006,8 57 0 0,0
27.10.2020 22:00:00 10,0 6,9 9,0 8,4 10,4 12,7 11,2 35 19 47 25 SSW 1006,9 57 0 0,0
27.10.2020 21:00:00 10,4 7,3 9,2 8,8 10,6 12,7 11,4 34 19 46 25 SSW 1006,7 49 0 0,0
27.10.2020 20:00:00 10,7 7,5 9,7 9,2 10,7 12,7 11,5 32 17 43 23 SSW 1006,8 51 0 0,0
27.10.2020 19:00:00 10,9 8,1 10,4 9,4 10,8 12,7 11,6 26 14 36 20 SSW 1006,9 47 0 0,0
27.10.2020 18:00:00 10,8 8,0 9,9 9,6 10,9 12,7 11,5 19 10 36 20 S 1006,7 45 0 0,0
27.10.2020 17:00:00 10,9 8,0 9,7 9,8 11,0 12,7 11,5 22 12 35 19 S 1006,4 42 11 0,0
27.10.2020 16:00:00 11,0 8,1 10,8 10,8 10,9 12,7 11,7 19 10 37 20 S 1006,3 40 21 0,0
27.10.2020 15:00:00 11,4 8,2 12,1 11,7 10,8 12,7 11,8 24 13 37 20 SSW 1006,4 44 37 0,0
27.10.2020 14:00:00 11,3 8,1 12,2 11,2 10,6 12,7 11,7 27 15 36 19 SSW 1006,7 29 17 0,0
27.10.2020 13:00:00 10,3 7,6 10,7 10,8 10,4 12,7 11,5 29 16 35 19 SSW 1006,5 37 4 0,0
27.10.2020 12:00:00 10,0 7,4 10,4 10,2 10,3 12,7 11,5 29 16 37 20 SSW 1006,6 43 0 0,0
27.10.2020 11:00:00 9,7 7,6 9,9 9,8 10,2 12,7 11,3 31 17 41 22 SSW 1006,7 37 0 0,0
27.10.2020 10:00:00 9,2 7,2 9,3 9,2 10,2 12,7 11,2 32 17 41 22 SSW 1006,3 40 0 0,0
27.10.2020 09:00:00 9,1 7,1 8,9 8,8 10,3 12,7 11,2 31 17 37 20 SSW 1006,0 43 0 0,0
27.10.2020 08:00:00 9,2 7,2 8,5 8,5 10,4 12,7 11,2 31 17 37 20 SSW 1005,9 42 0 0,0
27.10.2020 07:00:00 9,3 7,5 8,4 8,7 10,5 12,7 11,3 31 17 39 21 SSW 1005,5 40 0 0,0
27.10.2020 06:00:00 9,6 8,3 8,8 8,8 10,7 12,7 11,4 34 18 41 22 SSW 1005,1 34 0 0,0
27.10.2020 05:00:00 9,8 8,2 8,7 9,0 10,8 12,7 11,4 28 15 34 19 SSW 1004,3 36 0 0,0
27.10.2020 04:00:00 10,0 8,5 9,2 9,2 10,9 12,7 11,5 28 15 33 18 SSW 1004,2 34 0 0,0
27.10.2020 03:00:00 10,2 8,6 9,4 9,4 11,1 12,7 11,5 25 14 31 17 SW 1003,8 35 0 0,0
27.10.2020 02:00:00 10,3 8,6 9,6 9,6 11,2 12,7 11,6 27 14 37 20 SW 1003,9 31 0 0,0
27.10.2020 01:00:00 10,7 8,7 9,8 9,9 11,3 12,7 11,6 29 16 37 20 SW 1003,9 36 0 0,0
27.10.2020 00:00:00 10,8 9,7 10,2 10,4 11,4 12,7 11,6 23 12 30 16 WSW 1003,4 25 0 0,0
26.10.2020 23:00:00 10,9 10,2 10,2 10,6 11,4 12,7 11,7 20 11 27 15 SW 1003,0 15 0 0,1
26.10.2020 22:00:00 11,2 10,6 10,8 10,8 11,5 12,7 11,7 19 11 23 12 SW 1003,1 11 0 0,0
26.10.2020 21:00:00 11,2 10,7 10,8 10,8 11,5 12,7 11,8 12 7 15 8 SSW 1002,9 10 0 0,2
26.10.2020 20:00:00 11,2 10,8 10,8 11,0 11,5 12,7 11,8 11 6 21 11 SSW 1002,6 6 0 2,5
26.10.2020 19:00:00 11,3 10,6 10,9 11,0 11,6 12,7 11,8 16 9 21 11 SSW 1003,0 5 0 1,2
26.10.2020 18:00:00 11,5 10,5 10,9 11,0 11,6 12,7 11,9 10 5 19 11 S 1002,8 9 0 0,2
26.10.2020 17:00:00 11,4 10,4 10,8 11,1 11,6 12,7 11,8 12 6 20 11 S 1002,6 15 0 0,1
26.10.2020 16:00:00 11,5 10,4 10,9 11,3 11,6 12,7 11,8 10 6 19 10 SSE 1002,8 19 0 0,0
26.10.2020 15:00:00 11,4 10,3 11,0 11,7 11,5 12,7 11,9 9 5 15 8 SSE 1002,4 23 0 0,0
26.10.2020 14:00:00 11,3 10,2 10,9 11,7 11,5 12,7 11,8 10 5 19 10 SE 1002,1 21 0 0,0
26.10.2020 13:00:00 11,2 10,1 10,8 11,3 11,4 12,7 11,8 7 4 17 9 SSE 1002,8 22 0 0,4
26.10.2020 12:00:00 11,2 10,0 10,8 11,2 11,4 12,7 11,8 10 5 19 11 S 1003,2 20 0 0,1
26.10.2020 11:00:00 11,3 9,5 11,6 11,3 11,3 12,7 11,8 11 6 26 14 S 1003,1 30 0 0,0
26.10.2020 10:00:00 11,2 9,5 11,1 10,9 11,2 12,7 11,8 21 12 30 16 SSW 1003,1 32 0 0,0
26.10.2020 09:00:00 11,1 9,6 11,1 10,6 11,2 12,7 11,8 14 8 26 14 S 1002,7 30 0 0,0
26.10.2020 08:00:00 11,3 9,7 10,9 10,3 11,2 12,7 11,7 12 6 23 12 S 1003,0 33 0 0,0
26.10.2020 07:00:00 11,2 9,5 10,7 10,1 11,3 12,7 11,7 16 9 26 14 S 1002,5 34 0 0,0
26.10.2020 06:00:00 11,2 9,5 10,7 10,1 11,4 12,7 11,8 15 8 25 13 S 1002,6 33 0 0,0
26.10.2020 05:00:00 11,1 9,4 9,8 10,0 11,5 12,7 11,8 15 8 27 14 S 1002,4 35 0 0,0
26.10.2020 04:00:00 11,4 9,6 10,7 10,3 11,6 12,7 11,8 16 9 25 14 S 1002,9 37 0 0,0
26.10.2020 03:00:00 11,7 9,7 10,3 10,4 11,7 12,7 11,9 14 8 23 12 S 1002,2 42 0 0,0
26.10.2020 02:00:00 12,2 9,8 11,7 11,0 11,8 12,7 12,0 19 11 31 17 SSW 1003,1 40 0 0,0
26.10.2020 01:00:00 12,3 10,0 11,8 11,0 11,8 12,7 11,9 21 12 30 16 S 1003,2 41 0 0,0
26.10.2020 00:00:00 12,4 10,1 11,6 11,0 11,9 12,7 12,0 14 8 23 13 S 1002,9 47 0 0,0
25.10.2020 23:00:00 12,7 10,3 11,9 11,1 12,0 12,7 12,0 15 8 29 16 S 1003,2 42 0 0,0
25.10.2020 22:00:00 12,8 10,2 12,0 11,3 12,0 12,7 12,1 17 9 32 17 S 1003,5 41 0 0,0
25.10.2020 21:00:00 13,0 10,5 12,1 11,3 12,1 12,7 12,1 18 10 33 18 S 1003,9 41 0 0,0
25.10.2020 20:00:00 13,2 10,6 12,2 11,4 12,2 12,7 12,2 19 10 31 17 S 1003,9 41 0 0,0
25.10.2020 19:00:00 13,3 10,7 12,5 11,6 12,3 12,7 12,2 16 9 31 17 S 1004,1 47 0 0,0
25.10.2020 18:00:00 13,5 10,9 12,6 11,7 12,4 12,7 12,1 19 10 32 17 S 1004,4 48 0 0,0
25.10.2020 17:00:00 13,3 10,9 12,0 12,0 12,5 12,7 12,2 16 9 33 18 SSE 1004,7 50 0 0,0
25.10.2020 16:00:00 13,6 10,7 13,0 12,6 12,5 12,7 12,3 19 10 31 17 S 1004,7 58 0 0,0
25.10.2020 15:00:00 13,7 10,8 13,3 13,0 12,4 12,7 12,5 16 9 39 21 S 1004,8 67 0 0,0
25.10.2020 14:00:00 13,8 10,8 13,9 13,5 12,3 12,7 12,5 16 9 37 20 S 1005,2 50 0 0,0
25.10.2020 13:00:00 13,6 10,2 13,8 13,9 12,0 12,7 12,4 23 12 37 20 S 1005,6 52 43 0,0
25.10.2020 12:00:00 13,6 10,1 14,3 13,7 11,7 12,7 12,3 23 12 39 21 S 1006,2 69 52 0,0
25.10.2020 11:00:00 12,7 9,8 12,7 12,5 11,5 12,7 12,0 32 18 41 22 SSW 1006,4 58 48 0,0
25.10.2020 10:00:00 12,1 9,3 12,2 11,6 11,4 12,7 11,8 26 14 39 21 S 1006,5 54 60 0,0
25.10.2020 09:00:00 11,6 9,2 11,5 10,7 11,4 12,7 11,6 22 12 37 20 S 1007,0 51 51 0,0
25.10.2020 08:00:00 11,3 9,4 10,5 10,3 11,5 12,7 11,7 21 11 37 20 S 1007,1 52 0 0,0
25.10.2020 07:00:00 11,6 9,7 10,7 10,7 11,6 12,7 11,7 19 10 32 17 S 1007,2 54 0 0,0
25.10.2020 06:00:00 12,2 10,0 11,8 11,0 11,6 12,7 11,7 20 11 34 18 S 1007,5 47 0 0,0
25.10.2020 05:00:00 12,5 10,3 12,0 10,9 11,6 12,7 11,8 20 11 31 17 S 1007,8 47 0 0,0
25.10.2020 04:00:00 12,2 10,5 10,8 10,9 11,7 12,7 11,8 15 8 28 15 S 1008,2 46 0 0,0
25.10.2020 03:00:00 12,4 10,5 12,0 11,2 11,7 12,7 11,8 15 8 26 14 S 1008,7 43 0 0,0
25.10.2020 02:00:00 12,4 10,5 12,0 11,1 11,7 12,7 11,7 20 11 29 16 S 1009,2 48 0 0,0
25.10.2020 01:00:00 - - - - - - - - - - - - - - - -
25.10.2020 00:00:00 12,5 11,0 11,2 11,1 11,9 12,7 11,8 18 10 30 16 S 1009,8 37 0 0,0
24.10.2020 23:00:00 12,5 11,1 11,9 11,5 11,9 12,7 11,8 16 8 27 15 S 1010,0 33 0 0,0
24.10.2020 22:00:00 12,5 11,1 12,1 11,5 11,9 12,7 11,7 14 7 26 14 S 1010,4 39 0 0,0
24.10.2020 21:00:00 12,5 11,2 12,0 11,4 12,0 12,7 11,7 19 10 29 15 SSW 1010,6 32 0 0,0
24.10.2020 20:00:00 12,6 10,8 11,9 11,3 12,1 12,7 11,9 20 11 36 20 SSW 1010,8 47 0 0,0
24.10.2020 19:00:00 12,9 10,2 12,4 11,4 12,1 12,7 11,9 27 15 33 18 SSW 1010,9 44 0 0,0
24.10.2020 18:00:00 12,9 9,9 12,4 11,6 12,3 12,7 11,8 23 12 31 17 SSW 1010,9 48 0 0,0
24.10.2020 17:00:00 13,1 9,6 11,9 11,8 12,3 12,7 12,0 22 12 37 20 SW 1010,8 49 12 0,0
24.10.2020 16:00:00 13,5 9,9 13,3 13,1 12,3 12,7 12,0 25 13 40 22 WSW 1010,5 48 55 0,0
24.10.2020 15:00:00 13,9 10,4 14,3 13,5 12,1 12,7 12,1 35 19 46 25 WSW 1010,1 45 54 0,0
24.10.2020 14:00:00 13,3 10,9 13,6 12,7 12,0 12,7 11,9 32 17 39 21 SW 1010,3 27 1 0,1
24.10.2020 13:00:00 12,6 11,1 12,1 12,6 11,8 12,7 11,9 30 16 42 23 WSW 1010,2 9 0 0,0
24.10.2020 12:00:00 13,2 10,9 13,4 12,6 11,7 12,7 11,7 30 16 41 22 SW 1010,0 24 1 0,0

tt = temperature
td = dewpoint
tt 5cm = temperature 5cm
tt -5cm = temperature -5cm
tt -20cm = temperature -20cm
tt -100cm = temperature -100cm
tw = water temperature
ff = wind speed
fx = gusts
dd = wind direction
ppp = reduced air pressure
vv = visibility
sd = sunshine duration
rr = precipitation

Next stations